West Bend, WI

7:50 AM CDT on April 19, 2018 (GMT -0500)
West Bend Municipal

Weather History for KETB - September, 2012

Change the Weather History Date:

Tuesday, September 4, 2012

  Actual Average Record
Temperature  
Mean Temperature 74 °F -  
Max Temperature 86 °F 76 °F 89 °F (1925)
Min Temperature 62 °F 53 °F 40 °F (1982)
Cooling Degree Days 9    
Growing Degree Days 24 (Base 50)    
Moisture  
Dew Point 64 °F    
Average Humidity 76    
Maximum Humidity 100    
Minimum Humidity 45    
Precipitation  
Precipitation 0.03 in - - ()
Sea Level Pressure  
Sea Level Pressure 29.88 in    
Wind  
Wind Speed 3 mph (SE)    
Max Wind Speed 23 mph    
Max Gust Speed 38 mph    
Visibility 9 miles    
Events Fog , Rain    
Averages and records for this station are not official NWS values.
T = Trace of Precipitation, MM = Missing Value Source: NWS Daily Summary

Daily Weather History Graph

Daily Weather History Graph

Search for Another Location

Airport or City:

Astronomy

Sep. 04, 2012 Rise Set
Actual Time 6:20 AM CDT 7:21 PM CDT
Civil Twilight 5:51 AM CDT 7:50 PM CDT
Nautical Twilight 5:16 AM CDT 8:25 PM CDT
Astronomical Twilight 4:39 AM CDT 9:01 PM CDT
Moon 9:04 PM CDT (9/4) 10:36 AM CDT (9/4)
Length of Visible Light 13h 59m
Length of Day
13h 01m
Waning Gibbous, 83% of the Moon is Illuminated
Sep 4
Waning Gibbous
Sep 8
Last Quarter
Sep 15
New
Sep 22
First Quarter
Sep 29
Full

Hourly Weather History & Observations

Time (CDT) Temp. Heat Index Dew Point Humidity Pressure Visibility Wind Dir Wind Speed Gust Speed Precip Events Conditions
12:15 AM 69.8 °F - 68.0 °F 94% 29.90 in 10.0 mi Calm Calm - N/A   Mostly Cloudy
12:35 AM 69.8 °F - 68.0 °F 94% 29.90 in 10.0 mi Calm Calm - N/A   Mostly Cloudy
12:55 AM 69.8 °F - 68.0 °F 94% 29.90 in 7.0 mi Calm Calm - N/A   Mostly Cloudy
1:15 AM 69.8 °F - 68.0 °F 94% 29.91 in 7.0 mi Calm Calm - N/A   Overcast
1:35 AM 69.8 °F - 68.0 °F 94% 29.91 in 7.0 mi ENE 4.6 mph - N/A   Mostly Cloudy
1:55 AM 69.8 °F - 68.0 °F 94% 29.90 in 7.0 mi NE 4.6 mph - N/A   Mostly Cloudy
2:15 AM 68.0 °F - 68.0 °F 100% 29.90 in 7.0 mi Calm Calm - N/A   Scattered Clouds
2:35 AM 68.0 °F - 66.2 °F 94% 29.91 in 5.0 mi East 3.5 mph - N/A   Mostly Cloudy
2:55 AM 68.0 °F - 68.0 °F 100% 29.91 in 7.0 mi SE 3.5 mph - N/A   Mostly Cloudy
3:15 AM 68.0 °F - 68.0 °F 100% 29.91 in 7.0 mi SSE 3.5 mph - N/A   Mostly Cloudy
3:35 AM 68.0 °F - 66.2 °F 94% 29.91 in 10.0 mi South 4.6 mph - N/A   Scattered Clouds
3:55 AM 68.0 °F - 66.2 °F 94% 29.91 in 10.0 mi South 3.5 mph - N/A   Scattered Clouds
4:15 AM 68.0 °F - 64.4 °F 88% 29.91 in 10.0 mi Calm Calm - N/A   Clear
4:35 AM 68.0 °F - 64.4 °F 88% 29.90 in 10.0 mi Calm Calm - N/A   Clear
4:55 AM 66.2 °F - 64.4 °F 94% 29.90 in 10.0 mi Calm Calm - N/A   Clear
5:15 AM 64.4 °F - 62.6 °F 94% 29.90 in 7.0 mi Calm Calm - N/A   Clear
5:35 AM 64.4 °F - 62.6 °F 94% 29.90 in 10.0 mi Calm Calm - N/A   Clear
5:55 AM 64.4 °F - 62.6 °F 94% 29.90 in 0.8 mi Calm Calm - N/A   Mostly Cloudy
6:15 AM 62.6 °F - 62.6 °F 100% 29.90 in 1.0 mi Calm Calm - N/A   Mostly Cloudy
6:35 AM 62.6 °F - 62.6 °F 100% 29.90 in 0.2 mi Calm Calm - N/A Fog Fog
6:55 AM 64.4 °F - 62.6 °F 94% 29.91 in 1.2 mi Calm Calm - N/A   Mostly Cloudy
7:15 AM 64.4 °F - 62.6 °F 94% 29.91 in 7.0 mi Calm Calm - N/A   Clear
7:35 AM 66.2 °F - 64.4 °F 94% 29.91 in 7.0 mi Calm Calm - N/A   Clear
7:55 AM 68.0 °F - 66.2 °F 94% 29.91 in 10.0 mi Calm Calm - N/A   Clear
8:15 AM 71.6 °F - 68.0 °F 88% 29.91 in 10.0 mi Calm Calm - N/A   Clear
8:35 AM 73.4 °F - 68.0 °F 83% 29.91 in 10.0 mi WSW 5.8 mph - N/A   Clear
8:55 AM 75.2 °F - 68.0 °F 78% 29.90 in 10.0 mi West 5.8 mph - N/A   Clear
9:15 AM 77.0 °F - 64.4 °F 65% 29.90 in 10.0 mi West 5.8 mph - N/A   Clear
9:35 AM 77.0 °F - 64.4 °F 65% 29.90 in 10.0 mi WSW 4.6 mph - N/A   Clear
9:55 AM 78.8 °F - 64.4 °F 61% 29.90 in 10.0 mi WNW 3.5 mph - N/A   Clear
10:15 AM 78.8 °F - 62.6 °F 57% 29.90 in 10.0 mi West 3.5 mph - N/A   Clear
10:35 AM 80.6 °F 82.3 °F 64.4 °F 58% 29.90 in 10.0 mi NW 4.6 mph - N/A   Clear
10:55 AM 80.6 °F 82.3 °F 64.4 °F 58% 29.90 in 10.0 mi Calm Calm - N/A   Clear
11:15 AM 82.4 °F 83.9 °F 64.4 °F 54% 29.89 in 10.0 mi WSW 3.5 mph - N/A   Scattered Clouds
11:35 AM 80.6 °F 81.8 °F 62.6 °F 54% 29.90 in 10.0 mi Calm Calm - N/A   Scattered Clouds
11:55 AM 82.4 °F 83.4 °F 62.6 °F 51% 29.89 in 10.0 mi Calm Calm - N/A   Mostly Cloudy
12:15 PM 84.2 °F 85.0 °F 62.6 °F 48% 29.89 in 10.0 mi SSE 3.5 mph - N/A   Scattered Clouds
12:35 PM 82.4 °F 83.4 °F 62.6 °F 51% 29.89 in 10.0 mi Calm Calm - N/A   Scattered Clouds
12:55 PM 86.0 °F 86.6 °F 62.6 °F 45% 29.88 in 10.0 mi WSW 3.5 mph - N/A   Clear
1:15 PM 84.2 °F 85.0 °F 62.6 °F 48% 29.87 in 10.0 mi Calm Calm - N/A   Scattered Clouds
1:35 PM 84.2 °F 84.4 °F 60.8 °F 45% 29.86 in 10.0 mi Calm Calm - N/A   Scattered Clouds
1:55 PM 86.0 °F 88.2 °F 66.2 °F 51% 29.86 in 10.0 mi East 6.9 mph - N/A   Mostly Cloudy
2:55 PM 82.4 °F 85.4 °F 68.0 °F 62% 29.85 in 10.0 mi East 9.2 mph - N/A   Clear
3:15 PM 82.4 °F 84.6 °F 66.2 °F 58% 29.85 in 10.0 mi SSE 5.8 mph - N/A   Clear
3:35 PM 82.4 °F 84.6 °F 66.2 °F 58% 29.85 in 10.0 mi ESE 6.9 mph - N/A   Clear
3:55 PM 82.4 °F 84.6 °F 66.2 °F 58% 29.85 in 10.0 mi ESE 6.9 mph - N/A   Clear
4:15 PM 82.4 °F 84.6 °F 66.2 °F 58% 29.85 in 10.0 mi ESE 8.1 mph - N/A   Clear
4:35 PM 82.4 °F 84.6 °F 66.2 °F 58% 29.85 in 10.0 mi East 6.9 mph - N/A   Clear
4:55 PM 80.6 °F 82.7 °F 66.2 °F 61% 29.85 in 10.0 mi ESE 8.1 mph - N/A   Clear
5:15 PM 80.6 °F 82.7 °F 66.2 °F 61% 29.85 in 10.0 mi ESE 8.1 mph - N/A   Clear
5:35 PM 78.8 °F - 64.4 °F 61% 29.84 in 10.0 mi ESE 5.8 mph - N/A   Clear
5:55 PM 78.8 °F - 64.4 °F 61% 29.84 in 10.0 mi ESE 8.1 mph - N/A   Clear
6:15 PM 77.0 °F - 64.4 °F 65% 29.84 in 10.0 mi ESE 5.8 mph - N/A   Clear
6:35 PM 73.4 °F - 64.4 °F 73% 29.84 in 10.0 mi East 5.8 mph - N/A   Clear
6:55 PM 71.6 °F - 64.4 °F 78% 29.84 in 10.0 mi East 5.8 mph - N/A   Clear
7:15 PM 71.6 °F - 64.4 °F 78% 29.85 in 10.0 mi East 3.5 mph - N/A   Clear
7:35 PM 71.6 °F - 66.2 °F 83% 29.85 in 10.0 mi ESE 4.6 mph - N/A   Clear
7:55 PM 69.8 °F - 66.2 °F 88% 29.85 in 10.0 mi ESE 3.5 mph - N/A   Clear
8:15 PM 69.8 °F - 66.2 °F 88% 29.86 in 10.0 mi Calm Calm - N/A   Clear
8:35 PM 69.8 °F - 68.0 °F 94% 29.84 in 10.0 mi ENE 5.8 mph - N/A   Clear
8:55 PM 69.8 °F - 68.0 °F 94% 29.86 in 10.0 mi Calm Calm - N/A   Clear
9:15 PM 69.8 °F - 68.0 °F 94% 29.86 in 10.0 mi Calm Calm - N/A   Clear
9:35 PM 71.6 °F - 59.0 °F 64% 29.90 in 10.0 mi West 23.0 mph 28.8 mph N/A   Mostly Cloudy
9:55 PM 69.8 °F - 55.4 °F 60% 29.90 in 10.0 mi West 23.0 mph 28.8 mph N/A   Mostly Cloudy
10:15 PM 68.0 °F - 55.4 °F 64% 29.91 in 10.0 mi WSW 19.6 mph 26.5 mph N/A Rain Light Rain
10:55 PM 64.4 °F - 57.2 °F 77% 29.92 in 10.0 mi South 13.8 mph - 0.02 in Rain Rain
11:15 PM 64.4 °F - 57.2 °F 77% 29.84 in 10.0 mi SSE 18.4 mph 24.2 mph N/A Rain Light Rain
11:35 PM 66.2 °F - 55.4 °F 68% 29.75 in 10.0 mi SSE 21.9 mph 38.0 mph N/A Rain Light Rain
11:55 PM 68.0 °F - 55.4 °F 64% 29.78 in 10.0 mi East 10.4 mph 20.7 mph 0.01 in   Scattered Clouds